| time (UTC) | temp C | wind direction | speed KPH | gust KPH | rain 1hr cm | rain 24hr cm | rain mn cm | humidity % | barometer mb |
| 20260504030024 | 8 | 241 | 4.8 | 12.9 | 0.00 | 0.00 | 0.00 | 67 | 1013.6 |
| 20260504024523 | 9 | 227 | 8.0 | 19.3 | 0.00 | 0.00 | 0.00 | 65 | 1013.6 |
| 20260504023023 | 9 | 224 | 4.8 | 9.7 | 0.00 | 0.00 | 0.00 | 60 | 1013.4 |
| 20260504021523 | 10 | 210 | 6.4 | 11.3 | 0.00 | 0.00 | 0.00 | 59 | 1013.4 |
| 20260504020024 | 10 | 213 | 8.0 | 11.3 | 0.00 | 0.00 | 0.00 | 59 | 1013.4 |
| 20260504014525 | 10 | 211 | 4.8 | 9.7 | 0.00 | 0.00 | 0.00 | 59 | 1013.3 |
| 20260504013021 | 10 | 209 | 4.8 | 9.7 | 0.00 | 0.00 | 0.00 | 60 | 1013.4 |
| 20260504011521 | 10 | 217 | 3.2 | 8.0 | 0.00 | 0.00 | 0.00 | 62 | 1013.3 |
| 20260504010020 | 10 | 214 | 4.8 | 9.7 | 0.00 | 0.00 | 0.00 | 59 | 1013.4 |
| 20260504004528 | 11 | 212 | 6.4 | 12.9 | 0.00 | 0.00 | 0.00 | 56 | 1013.3 |
| 20260504003019 | 11 | 211 | 8.0 | 14.5 | 0.00 | 0.00 | 0.00 | 56 | 1013.3 |
| 20260504001519 | 12 | 214 | 8.0 | 17.7 | 0.00 | 0.00 | 0.00 | 54 | 1013.5 |
| 20260504000018 | 12 | 238 | 9.7 | 20.9 | 0.00 | 0.00 | 0.00 | 53 | 1013.5 |
| 20260503234517 | 12 | 209 | 11.3 | 19.3 | 0.00 | 0.00 | 0.00 | 53 | 1013.6 |
| 20260503233019 | 12 | 228 | 12.9 | 24.1 | 0.00 | 0.00 | 0.00 | 51 | 1013.6 |
| 20260503231516 | 12 | 220 | 9.7 | 16.1 | 0.00 | 0.00 | 0.00 | 53 | 1013.6 |
| 20260503230015 | 13 | 228 | 11.3 | 24.1 | 0.00 | 0.00 | 0.00 | 52 | 1013.6 |
| 20260503224514 | 13 | 241 | 11.3 | 16.1 | 0.00 | 0.00 | 0.00 | 52 | 1013.7 |
| 20260503223014 | 13 | 246 | 9.7 | 20.9 | 0.00 | 0.00 | 0.00 | 51 | 1013.7 |
| 20260503221514 | 13 | 231 | 8.0 | 22.5 | 0.00 | 0.00 | 0.00 | 52 | 1013.9 |
| 20260503220013 | 13 | 213 | 16.1 | 25.7 | 0.00 | 0.00 | 0.00 | 49 | 1013.9 |
| 20260503214512 | 13 | 240 | 11.3 | 35.4 | 0.00 | 0.00 | 0.00 | 49 | 1014.0 |
| 20260503213017 | 13 | 223 | 14.5 | 27.4 | 0.00 | 0.00 | 0.00 | 48 | 1013.9 |
| 20260503211511 | 15 | 247 | 11.3 | 27.4 | 0.00 | 0.00 | 0.00 | 47 | 1013.8 |
| 20260503210010 | 15 | 194 | 12.9 | 22.5 | 0.00 | 0.00 | 0.00 | 46 | 1013.7 |
| 20260503204508 | 14 | 201 | 11.3 | 24.1 | 0.00 | 0.00 | 0.00 | 45 | 1013.7 |
| 20260503203013 | 15 | 218 | 19.3 | 27.4 | 0.00 | 0.00 | 0.00 | 44 | 1013.9 |
| 20260503201505 | 14 | 208 | 14.5 | 30.6 | 0.00 | 0.00 | 0.00 | 49 | 1014.2 |
| 20260503200002 | 15 | 223 | 11.3 | 30.6 | 0.00 | 0.00 | 0.00 | 48 | 1014.5 |
| 20260503194559 | 14 | 169 | 19.3 | 35.4 | 0.00 | 0.00 | 0.00 | 49 | 1014.8 |
| 20260503193111 | 14 | 246 | 12.9 | 22.5 | 0.00 | 0.00 | 0.00 | 45 | 1015.0 |
| 20260503191606 | 15 | 242 | 11.3 | 17.7 | 0.00 | 0.00 | 0.00 | 47 | 1015.1 |
| 20260503190056 | 13 | 255 | 11.3 | 25.7 | 0.00 | 0.00 | 0.00 | 49 | 1015.4 |
| 20260503184552 | 15 | 255 | 8.0 | 35.4 | 0.00 | 0.00 | 0.00 | 49 | 1015.6 |
| 20260503183107 | 14 | 258 | 9.7 | 29.0 | 0.00 | 0.00 | 0.00 | 51 | 1015.9 |
| 20260503181614 | 13 | 263 | 12.9 | 29.0 | 0.00 | 0.00 | 0.00 | 49 | 1016.1 |
| 20260503180046 | 14 | 235 | 16.1 | 24.1 | 0.00 | 0.00 | 0.00 | 50 | 1016.2 |
| 20260503174544 | 13 | 274 | 9.7 | 19.3 | 0.00 | 0.00 | 0.00 | 53 | 1016.3 |
| 20260503173052 | 13 | 263 | 12.9 | 22.5 | 0.00 | 0.00 | 0.00 | 49 | 1016.6 |
| 20260503171541 | 13 | 252 | 11.3 | 17.7 | 0.00 | 0.00 | 0.00 | 53 | 1016.8 |
| 20260503081525 | 0 | 296 | 0.0 | 0.0 | 0.00 | 0.00 | 0.00 | 92 | 1017.0 |
| 20260503071522 | 1 | 296 | 0.0 | 0.0 | 0.00 | 0.00 | 0.00 | 90 | 1016.9 |
| 20260503054506 | 2 | 313 | 1.6 | 3.2 | 0.00 | 0.00 | 0.00 | 90 | 1017.1 |
| 20260503053009 | 2 | 321 | 0.0 | 0.0 | 0.00 | 0.00 | 0.00 | 91 | 1017.2 |
| 20260503051504 | 2 | 321 | 0.0 | 0.0 | 0.00 | 0.00 | 0.00 | 91 | 1017.2 |
| 20260503050003 | 2 | 321 | 0.0 | 0.0 | 0.00 | 0.00 | 0.00 | 90 | 1017.3 |
| 20260503044502 | 2 | 321 | 0.0 | 0.0 | 0.00 | 0.00 | 0.00 | 90 | 1017.3 |
| 20260503043003 | 2 | 321 | 0.0 | 0.0 | 0.00 | 0.00 | 0.00 | 91 | 1017.3 |
| 20260503041600 | 2 | 321 | 0.0 | 0.0 | 0.00 | 0.00 | 0.00 | 91 | 1017.4 |
| 20260503040058 | 2 | 321 | 0.0 | 0.0 | 0.00 | 0.00 | 0.00 | 90 | 1017.4 |
| 20260503034613 | 2 | 321 | 0.0 | 0.0 | 0.00 | 0.00 | 0.00 | 89 | 1017.5 |
| 20260503033100 | 2 | 321 | 0.0 | 0.0 | 0.00 | 0.00 | 0.00 | 87 | 1017.5 |
| 20260503031559 | 2 | 321 | 0.0 | 0.0 | 0.00 | 0.00 | 0.00 | 85 | 1017.5 |